Location: Boitzum
(52.1496°N, 9.6943°E)
Time: 23:36:40
(UTC+00:00)

SL-08 R/B - Pass Details

Date: 13 January 2026
Orbit: 666 x 730 km, 98.5° (Epoch: 17 February)

Event Time Altitude Azimuth Distance (km) Brightness Sun altitude
Rises 06:39:52 0° 171° (S) 3,125 7.2 -6.7°
Reaches altitude 10° 06:42:08 10° 174° (S) 2,215 6.4 -6.4°
Maximum altitude 06:46:59 67° 257° (WSW) 794 3.5 -5.8°
Drops below altitude 10° 06:51:54 10° 340° (NNW) 2,242 5.5 -5.1°
Sets 06:54:13 0° 344° (NNW) 3,167 6.3 -4.8°
